{"data":{"norad_id":68297,"intl_designator":"2026-057D","name":"STARLINK-37115","alt_names":[],"object_type":"PAYLOAD","status":"ACTIVE","operator":null,"country":"US","launch_date":"2026-03-20","launch_site_code":"AFWTR","launch_vehicle":null,"mission":null,"orbit_class":"UNKNOWN","rcs_meters":null,"size_class":null,"mass_kg":null,"dimensions":null,"purposes":["comms"],"wikipedia_slug":null,"has_3d_model":false,"image_url":null,"decayed_at":null,"tle_current":{"epoch":"2026-05-25T02:16:19.674624Z","epoch_age_seconds":67205,"freshness":"FRESH","line1":"1 68297U 26057D   26145.09467216  .00153171  00000+0  10075-2 0  9997","line2":"2 68297  97.2863 271.3491 0001355  69.5919 290.5491 15.75235110 10314","mean_motion":15.7523511,"eccentricity":0.0001355,"inclination_deg":97.2863,"raan_deg":271.3491,"arg_perigee_deg":69.5919,"mean_anomaly_deg":290.5491,"bstar":0.0010075,"rev_number":1031,"period_min":91.414925356762,"perigee_km":343.0513873623,"apogee_km":344.87307625412,"semimajor_km":6722.0992318082,"source":"CELESTRAK","updated_at":"2026-05-25T13:38:21.915912Z"}}}